Regional Weather Roundup
Issued by NWS State College, PA

Home | Current Version | Previous Version | Text Only | Print | Product List | Glossary On
Versions: 1 2 3 4 5 6 7 8 9 10 11 12 13 14 15 16 17 18 19 20 21 22 23 24 25 26 27 28 29 30 31 32 33 34 35 36 37 38 39 40 41 42 43 44 45 46 47 48 49 50
000
ASUS41 KCTP 210210
RWRCTP

REGIONAL WEATHER ROUNDUP
NATIONAL WEATHER SERVICE STATE COLLEGE PA
900 PM EST FRI JAN 20 2017

Note: "fair" indicates few or no clouds below 12,000 feet with no
significant weather and/or obstructions to visibility.

* = STATION THAT DOES NOT REPORT PRECIPITATION /E.G. RAIN...SNOW...ETC/
    THUNDER OR FOG.

PAZ002>004-007>009-013>016-020>023-029>032-210300-
WESTERN PENNSYLVANIA

CITY           SKY/WX    TMP DP  RH WIND       PRES   REMARKS
ERIE           FOG       47  45  93 SW5       29.76S VSB 3/4
MEADVILLE      FOG       49  47  93 S6        29.77R VSB 1/2
FRANKLIN*        N/A     48  46  93 SW6       29.79R
NEW CASTLE     FOG       46  46 100 CALM      29.79R VSB 1
BEAVER COUNTY  CLOUDY    52  50  93 SW5       29.79R
BUTLER*        CLOUDY    50  48  93 CALM      29.82R
PITTSBURGH INT MOCLDY    53  51  93 S5        29.79R
PITTSBURGH     MOCLDY    53  48  83 S8        29.79R
INDIANA*       FOG       46  46 100 CALM      29.82S VSB 1
LATROBE        PTCLDY    50  50 100 CALM      29.81S
WASHINGTON CO* MOCLDY    50  48  93 CALM      29.81R
$$

PAZ004>006-010>012-017>019-024>028-033>037-041-042-045-046-049>053-210300-
CENTRAL PENNSYLVANIA

CITY           SKY/WX    TMP DP  RH WIND       PRES   REMARKS
BRADFORD       LGT RAIN  44  44 100 CALM      29.77S FOG
DUBOIS         FOG       44  42  93 SE3       29.78R VSB<1/4
CLEARFIELD     FOG       39  39 100 N3        29.81R VSB 3/4
JOHNSTOWN      CLOUDY    51  48  89 S9        29.80R
ALTOONA        CLOUDY    41  40  96 CALM      29.84S FOG
STATE COLLEGE  CLOUDY    37  37 100 CALM      29.84S FOG
WILLIAMSPORT   CLOUDY    40  38  93 SE3       29.86S
SELINSGROVE    FOG       39  39 100 SW3       29.88S VSB 1
FT INDIANTOWN  CLOUDY    37  37 100 CALM      29.89F FOG
CAPITAL CITY   CLOUDY    40  38  93 CALM      29.89F FOG
HARRISBURG     CLOUDY    39  39 100 CALM      29.89F FOG
YORK           FOG       42  42 100 CALM      29.89R VSB 1/2
$$

PAZ038>040-043-044-047-048-054-055-060>062-067>071-210300-
EASTERN PENNSYLVANIA

CITY           SKY/WX    TMP DP  RH WIND       PRES   REMARKS
SCRANTON       CLOUDY    39  38  96 SW3       29.85F
MOUNT POCONO   CLOUDY    34  33  96 VRB3      29.84S FOG
ALLENTOWN      CLOUDY    39  36  89 NE3       29.90F FOG
QUAKERTOWN*    CLOUDY    37  37 100 CALM      29.91S
READING        CLOUDY    38  38 100 CALM      29.90S FOG
LANCASTER      CLOUDY    41  41 100 E3        29.89F FOG
COATESVILLE    FOG       41  41 100 CALM      29.91S VSB<1/4
POTTSTOWN      CLOUDY    39  38  96 CALM      29.92S FOG
BLUE BELL      CLOUDY    37  37 100 CALM      29.90S VSB 1
DOYLESTOWN     CLOUDY    41  40  96 CALM      29.90S FOG
WILLOW GROVE   NOT AVBL
NORTH PHILA    CLOUDY    43  41  93 CALM      29.94R FOG
PHILADELPHIA   CLOUDY    42  40  92 CALM      29.93R
$$



USA.gov is the U.S. government's official web portal to all federal, state and local government web resources and services.